Location: Castelnau
(43.6639°N, 0.8431°W)
Time: 17:01:10
(UTC+00:00)

CZ-4 R/B - Pass Details

Date: 13 January 2026
Orbit: 676 x 743 km, 98.7° (Epoch: 10 February)

Event Time Altitude Azimuth Distance (km) Brightness Sun altitude
Rises 06:02:08 0° 6° (N) 3,087 7.1 -16.4°
Reaches altitude 10° 06:04:29 10° 359° (N) 2,176 6.2 -15.9°
Maximum altitude 06:08:53 38° 291° (WNW) 1,075 4.3 -15.2°
Drops below altitude 10° 06:13:20 10° 224° (SW) 2,201 6.1 -14.4°
Sets 06:15:43 0° 217° (SW) 3,128 7.0 -14.0°
